Location: Kalberh�ni
(46.4610°N, 7.2453°E)
Time: 21:43:13
(UTC+00:00)

USA 229 - Pass Details

Date: 23 October 2021
Orbit: 946 x 1266 km, 63.4° (Epoch: 25 November)

Event Time Altitude Azimuth Distance (km) Brightness Sun altitude
Rises 18:08:58 0° 204° (SSW) 3,623 6.8 -17.6°
Reaches altitude 10° 18:11:29 10° 201° (SSW) 2,701 6.0 -18.1°
Maximum altitude 18:17:41 62° 122° (ESE) 1,127 3.5 -19.1°
Enters shadow 18:22:24 20° 48° (NE) 2,212 5.0 -20.0°
